CW5260 Weather Reports


Display with metric or nautical units.
time (UTC)temp
F
wind
direction
speed
MPH
gust
MPH
rain 1hr
in
rain 24hr
in
rain mn
in
humidity
%
barometer
mb
20180926135711 73 169 3.0 7.0 0.00 0.17 0.00 91 1013.8
20180926134701 73 175 3.0 6.0 0.00 0.19 0.00 91 1013.9
20180926134201 73 220 3.0 6.0 0.00 0.20 0.00 91 1014.0
20180926133202 73 188 3.0 13.0 0.00 0.22 0.00 92 1013.9
20180926132701 73 197 3.0 11.0 0.00 0.23 0.00 93 1013.8
20180926132201 72 187 2.0 5.0 0.00 0.24 0.00 94 1013.8
20180926131701 72 157 3.0 4.0 0.00 0.25 0.00 94 1014.0
20180926131201 72 276 3.0 6.0 0.00 0.26 0.00 94 1014.1
20180926130701 72 218 3.0 9.0 0.00 0.28 0.00 93 1014.2
20180926130202 72 241 3.0 11.0 0.00 0.28 0.00 94 1014.2
20180926125701 72 212 2.0 7.0 0.00 0.29 0.00 94 1014.3
20180926124701 71 191 3.0 6.0 0.00 0.30 0.00 95 1014.3
20180926123201 71 213 2.0 6.0 0.00 0.34 0.00 96 1014.3
20180926122701 71 179 2.0 10.0 0.00 0.35 0.00 96 1014.4
20180926122201 71 210 2.0 4.0 0.00 0.37 0.00 96 1014.5
20180926121701 70 233 2.0 9.0 0.00 0.38 0.00 96 1014.6
20180926121202 70 284 2.0 5.0 0.00 0.38 0.00 97 1014.5
20180926120702 70 211 2.0 3.0 0.00 0.39 0.00 97 1014.5
20180926120201 70 201 2.0 5.0 0.00 0.39 0.00 97 1014.4
20180926115202 70 236 2.0 5.0 0.00 0.40 0.00 97 1014.4
20180926114702 70 271 2.0 6.0 0.00 0.40 0.00 97 1014.4
20180926113701 70 172 2.0 5.0 0.00 0.41 0.00 97 1014.4
20180926112702 70 187 2.0 7.0 0.00 0.43 0.00 97 1014.3
20180926112201 70 169 1.0 4.0 0.00 0.45 0.00 97 1014.4
20180926111201 70 190 1.0 3.0 0.00 0.48 0.00 97 1014.4
20180926110201 70 178 2.0 4.0 0.00 0.48 0.00 97 1014.4
20180926105701 70 241 2.0 7.0 0.00 0.48 0.00 97 1014.5
20180926104204 70 222 2.0 6.0 0.00 0.49 0.00 97 1014.5
20180926102202 70 209 2.0 6.0 0.00 0.51 0.00 97 1014.6
20180926100702 70 177 2.0 7.0 0.00 0.53 0.00 97 1014.6
20180926100202 70 165 3.0 7.0 0.00 0.53 0.00 98 1014.6
20180926095701 70 207 3.0 10.0 0.00 0.54 0.00 98 1014.7
20180926095202 70 225 3.0 4.0 0.00 0.54 0.00 98 1014.7
20180926094702 69 232 2.0 11.0 0.00 0.54 0.00 98 1014.6
20180926093702 69 205 2.0 7.0 0.00 0.54 0.00 98 1014.6
20180926093201 69 199 2.0 9.0 0.00 0.55 0.00 98 1014.5
20180926092702 69 212 2.0 7.0 0.00 0.55 0.00 98 1014.6
20180926091701 69 173 2.0 6.0 0.00 0.55 0.00 98 1014.5
20180926091202 69 165 2.0 5.0 0.00 0.55 0.00 98 1014.5
20180926084202 69 183 2.0 7.0 0.00 0.63 0.00 99 1015.0
20180926083702 69 179 2.0 5.0 0.00 0.64 0.00 99 1015.0
20180926082202 69 166 2.0 7.0 0.00 0.66 0.00 99 1015.3
20180926081701 69 187 2.0 7.0 0.00 0.66 0.00 99 1015.5
20180926080201 69 167 2.0 5.0 0.00 0.69 0.00 99 1015.5
20180926075702 69 164 3.0 6.0 0.00 0.70 0.00 99 1015.5
20180926075202 69 174 2.0 9.0 0.00 0.71 0.00 99 1015.6
20180926074201 69 154 2.0 5.0 0.00 0.73 0.00 99 1015.8
20180926073705 69 169 2.0 7.0 0.00 0.74 0.00 99 1015.9
20180926072702 69 175 2.0 9.0 0.00 0.75 0.00 99 1016.1
20180926071202 69 152 1.0 5.0 0.00 0.76 0.00 99 1016.2
20180926065753 69 162 1.0 4.0 0.00 0.78 0.00 99 1016.5
20180926063702 69 178 2.0 5.0 0.00 0.79 0.00 99 1016.8
20180926060202 68 158 2.0 4.0 0.00 0.80 0.00 99 1017.1
20180926055702 68 168 2.0 5.0 0.00 0.80 0.00 99 1017.2
20180926055202 68 173 1.0 9.0 0.00 0.80 0.00 1017.3
20180926054702 68 159 1.0 5.0 0.00 0.80 0.00 1017.4
20180926053702 68 130 0.0 1.0 0.00 0.80 0.00 1017.6
20180926052702 68 183 0.0 3.0 0.00 0.80 0.00 1017.6
20180926051702 68 252 1.0 2.0 0.00 0.80 0.00 99 1017.7
20180926051202 68 236 1.0 2.0 0.00 0.80 0.00 99 1017.7
20180926050701 68 283 1.0 3.0 0.00 0.80 0.00 99 1017.7
20180926045202 68 157 2.0 4.0 0.00 0.80 0.00 1017.7
20180926044707 68 196 1.0 5.0 0.00 0.80 0.00 99 1017.7
20180926044202 68 230 1.0 5.0 0.00 0.80 0.00 1017.8
20180926043702 68 177 1.0 3.0 0.00 0.80 0.00 99 1017.8
20180926043202 68 152 1.0 5.0 0.00 0.80 0.00 1017.9
20180926042702 68 193 2.0 3.0 0.00 0.80 0.00 1017.9
20180926042202 68 196 2.0 6.0 0.00 0.80 0.00 1018.0
20180926041702 68 167 1.0 4.0 0.00 0.80 0.00 1018.1
20180926041202 67 157 1.0 4.0 0.00 0.80 0.00 1018.1
20180926040702 67 176 1.0 6.0 0.00 0.80 0.00 1018.2
20180926040202 67 197 1.0 4.0 0.00 0.81 0.00 1018.2
20180926035702 67 179 1.0 3.0 0.00 0.81 0.81 99 1018.2
20180926035202 67 292 2.0 3.0 0.00 0.81 0.81 99 1018.2
20180926033702 67 160 2.0 3.0 0.00 0.81 0.81 99 1018.2
20180926031702 67 200 1.0 3.0 0.00 0.81 0.81 1018.4
20180926031202 67 217 1.0 3.0 0.00 0.82 0.81 1018.6
20180926030702 67 201 1.0 5.0 0.00 0.82 0.81 1018.5
20180926025702 67 215 1.0 2.0 0.00 0.82 0.81 1018.5
20180926025202 67 172 2.0 4.0 0.00 0.82 0.81 1018.5
20180926023202 66 153 2.0 3.0 0.00 0.82 0.81 1018.7
20180926022202 66 182 2.0 3.0 0.00 0.82 0.81 1019.0
20180926021702 66 158 2.0 5.0 0.00 0.82 0.81 1019.0
20180926020702 65 187 0.0 3.0 0.00 0.82 0.81 99 1019.3
20180926020202 65 269 0.0 0.0 0.00 0.82 0.81 1019.5
20180926015202 65 281 1.0 3.0 0.00 0.82 0.81 1019.4
20180926014702 65 279 0.0 0.0 0.00 0.82 0.81 99 1019.3
20180926013702 64 281 1.0 2.0 0.00 0.82 0.81 99 1019.2
20180926013202 64 288 1.0 2.0 0.00 0.82 0.81 99 1019.4
20180926012702 65 259 1.0 3.0 0.00 0.82 0.81 1019.5
20180926012202 64 326 1.0 2.0 0.00 0.82 0.81 99 1019.4
20180926011203 64 350 0.0 2.0 0.00 0.82 0.81 99 1019.4
20180926010702 63 350 1.0 1.0 0.00 0.82 0.81 99 1019.4
20180926010202 63 350 1.0 2.0 0.00 0.82 0.81 99 1019.5
20180926005702 63 350 1.0 1.0 0.00 0.82 0.81 99 1019.3
20180926003702 63 350 0.0 1.0 0.00 0.82 0.81 99 1019.2
20180926003205 63 350 1.0 1.0 0.00 0.82 0.81 99 1019.1
20180926002702 63 350 1.0 2.0 0.00 0.82 0.81 99 1018.9
20180926002202 63 351 2.0 3.0 0.00 0.82 0.81 99 1018.9
20180926001702 63 26 1.0 2.0 0.00 0.82 0.81 99 1018.6
20180925235202 63 31 0.0 2.0 0.00 0.82 0.81 98 1018.7
20180925234702 63 30 0.0 2.0 0.00 0.82 0.81 98 1019.0
20180925233702 64 30 0.0 1.0 0.00 0.82 0.81 98 1019.2
20180925233202 64 30 0.0 1.0 0.00 0.82 0.81 98 1019.3
20180925232702 64 25 0.0 1.0 0.00 0.82 0.81 98 1019.4
20180925232202 64 24 0.0 2.0 0.00 0.82 0.81 98 1019.5
20180925231705 64 22 1.0 2.0 0.00 0.82 0.81 98 1019.6
20180925231202 65 22 1.0 2.0 0.00 0.82 0.81 98 1019.8
20180925230704 65 15 1.0 3.0 0.00 0.82 0.81 98 1019.9
20180925230222 65 356 1.0 2.0 0.00 0.82 0.81 98 1020.0
20180925225713 65 331 1.0 2.0 0.00 0.82 0.81 99 1019.9
20180925225205 66 295 1.0 2.0 0.00 0.82 0.81 99 1020.0
20180925224702 66 295 1.0 2.0 0.00 0.82 0.81 99 1019.9
20180925224202 66 290 1.0 3.0 0.00 0.82 0.81 99 1019.9
20180925222702 66 265 0.0 2.0 0.00 0.82 0.81 99 1019.8
20180925222202 66 265 0.0 1.0 0.00 0.82 0.81 99 1019.8
20180925221702 66 265 0.0 1.0 0.00 0.82 0.81 99 1019.8
20180925220702 66 265 1.0 2.0 0.00 0.82 0.81 99 1019.8
20180925220204 66 264 1.0 2.0 0.00 0.82 0.81 99 1019.9
20180925215707 66 259 1.0 5.0 0.00 0.82 0.81 99 1019.9
20180925214704 66 263 1.0 2.0 0.00 0.82 0.81 99 1019.8
20180925213202 66 271 2.0 5.0 0.00 0.82 0.81 99 1019.8
20180925212702 66 252 2.0 5.0 0.00 0.82 0.81 99 1019.9
20180925211202 66 246 1.0 3.0 0.00 0.82 0.81 99 1020.1
20180925205702 66 160 1.0 3.0 0.00 0.82 0.81 99 1020.2
20180925204702 66 208 1.0 3.0 0.00 0.82 0.81 99 1020.4
20180925203702 66 255 1.0 3.0 0.00 0.82 0.81 99 1020.5
20180925202203 66 218 1.0 3.0 0.00 0.82 0.81 99 1020.6
20180925201702 66 160 1.0 4.0 0.00 0.82 0.81 99 1020.6
20180925201202 66 236 1.0 3.0 0.00 0.82 0.81 99 1020.6
20180925200202 66 286 1.0 2.0 0.00 0.82 0.81 99 1020.8
20180925194702 66 194 1.0 3.0 0.00 0.82 0.81 99 1020.7
20180925194202 66 286 1.0 4.0 0.00 0.82 0.81 99 1020.8
20180925193702 66 266 1.0 3.0 0.00 0.82 0.81 99 1020.8
20180925193203 66 272 2.0 3.0 0.00 0.82 0.81 99 1020.9
20180925192702 66 276 2.0 4.0 0.00 0.82 0.81 99 1020.9
20180925192202 66 278 1.0 4.0 0.00 0.82 0.81 99 1021.0
20180925191702 66 256 1.0 3.0 0.00 0.82 0.81 1021.0
20180925191202 66 292 2.0 4.0 0.00 0.82 0.81 1021.0
20180925190202 66 221 1.0 3.0 0.00 0.82 0.81 1021.0
20180925185155 66 166 2.0 3.0 0.01 0.82 0.81 1021.1
20180925184655 65 246 1.0 3.0 0.01 0.82 0.81 1021.1
20180925183655 65 132 0.0 1.0 0.02 0.82 0.81 99 1021.2
20180925182655 64 49 0.0 0.0 0.02 0.82 0.81 99 1021.3
20180925182155 64 46 0.0 0.0 0.03 0.82 0.81 99 1021.3
20180925181155 64 12 1.0 2.0 0.03 0.82 0.81 99 1021.3
20180925180655 64 9 1.0 2.0 0.03 0.82 0.81 99 1021.4
20180925180156 65 152 1.0 2.0 0.03 0.82 0.81 1021.5
20180925175655 65 177 0.0 1.0 0.02 0.81 0.80 1021.6
20180925175155 65 177 0.0 1.0 0.02 0.81 0.80 1021.7
20180925173656 64 139 1.0 1.0 0.01 0.80 0.79 99 1022.0
20180925172155 64 146 1.0 5.0 0.00 0.79 0.78 1022.2
20180925171656 64 128 2.0 4.0 0.00 0.79 0.78 1022.2
20180925170156 63 139 1.0 2.0 0.00 0.79 0.78 1022.2
20180925165656 63 141 1.0 4.0 0.00 0.79 0.78 99 1022.2
20180925164656 63 151 1.0 2.0 0.01 0.79 0.78 99 1022.5
20180925164155 63 150 2.0 3.0 0.01 0.79 0.78 99 1022.6
20180925163655 63 141 2.0 4.0 0.01 0.79 0.78 1022.7
20180925163156 63 151 2.0 4.0 0.01 0.79 0.78 1022.7
20180925162155 62 145 2.0 6.0 0.01 0.79 0.78 99 1022.8
20180925161656 62 155 2.0 5.0 0.01 0.79 0.78 99 1022.9
20180925161155 62 155 1.0 4.0 0.01 0.79 0.78 99 1022.9
20180925160156 61 197 1.0 2.0 0.01 0.79 0.78 99 1023.0
20180925155156 61 154 2.0 5.0 0.01 0.78 0.77 99 1023.0
20180925153656 61 140 2.0 4.0 0.03 0.78 0.77 99 1023.0
20180925152655 60 138 3.0 9.0 0.04 0.78 0.77 99 1023.1
20180925152155 60 128 3.0 9.0 0.05 0.78 0.77 99 1023.2
20180925151656 60 135 3.0 7.0 0.06 0.78 0.77 99 1023.2
20180925150656 59 139 3.0 7.0 0.10 0.78 0.77 99 1023.3
20180925145655 59 129 3.0 7.0 0.13 0.78 0.77 99 1023.4
20180925145156 58 134 2.0 5.0 0.13 0.77 0.76 99 1023.6
20180925144655 58 147 2.0 3.0 0.13 0.76 0.75 99 1023.6